WAT5327 PANC-KSEA

Flight info

Callsign WAT5327
Flight time N/A
Altitude 39000
Route JOH LAIRE BKA DUGGS VIXOR MARNR8
Aircraft A319/M-SDE3FGHIRWY/LB1

Departure

Time 2026-05-03 21:07
Airport Ted Stevens Anchorage International Airport (PANC)

Arrival

Time N/A
Airport Seattle–Tacoma International Airport (KSEA)
Time Latitude Longitude Altitude Speed Heading
2026-05-03 20:42 61.17218 -149.98398 117 ft 0 kts 358°
2026-05-03 21:00 61.17185 -149.98395 117 ft 4 kts 358°
2026-05-03 21:00 61.17158 -149.98393 122 ft 4 kts 352°
2026-05-03 21:01 61.17133 -149.98380 118 ft 4 kts 328°
2026-05-03 21:01 61.17118 -149.98347 117 ft 2 kts 271°
2026-05-03 21:01 61.17118 -149.98342 117 ft 0 kts 270°
2026-05-03 21:03 61.17118 -149.98347 117 ft 2 kts 270°
2026-05-03 21:03 61.17118 -149.98433 119 ft 11 kts 270°
2026-05-03 21:03 61.17118 -149.98666 119 ft 22 kts 270°
2026-05-03 21:03 61.17126 -149.99040 121 ft 29 kts 274°
2026-05-03 21:04 61.17127 -149.99527 121 ft 39 kts 271°
2026-05-03 21:04 61.17126 -150.00168 120 ft 50 kts 269°
2026-05-03 21:04 61.17124 -150.00966 121 ft 55 kts 270°
2026-05-03 21:04 61.17124 -150.01567 121 ft 43 kts 270°
2026-05-03 21:05 61.17125 -150.02249 121 ft 50 kts 270°
2026-05-03 21:05 61.17125 -150.02961 121 ft 41 kts 269°
2026-05-03 21:05 61.17075 -150.03358 120 ft 21 kts 224°
2026-05-03 21:05 61.16940 -150.03506 119 ft 22 kts 178°
2026-05-03 21:06 61.16797 -150.03414 118 ft 15 kts 129°
2026-05-03 21:06 61.16782 -150.03266 121 ft 0 kts 89°
2026-05-03 21:06 61.16783 -150.03028 120 ft 51 kts 89°
2026-05-03 21:07 61.16787 -150.01809 121 ft 116 kts 90°
2026-05-03 21:07 61.16787 -149.99745 129 ft 168 kts 89°
2026-05-03 21:07 61.16776 -149.97273 718 ft 173 kts 89°
2026-05-03 21:07 61.16776 -149.94768 1498 ft 176 kts 88°
2026-05-03 21:08 61.16702 -149.92176 2112 ft 191 kts 102°
2026-05-03 21:08 61.16258 -149.89419 2547 ft 212 kts 109°
2026-05-03 21:08 61.15679 -149.86441 3111 ft 232 kts 111°
2026-05-03 21:08 61.15030 -149.83214 3848 ft 250 kts 111°
2026-05-03 21:09 61.14359 -149.79874 4956 ft 254 kts 111°
2026-05-03 21:09 61.13687 -149.76489 6132 ft 254 kts 112°
2026-05-03 21:09 61.13023 -149.73103 7261 ft 254 kts 113°
2026-05-03 21:09 61.12355 -149.69675 8203 ft 259 kts 113°
2026-05-03 21:10 61.11678 -149.66168 9128 ft 266 kts 113°
2026-05-03 21:10 61.10985 -149.62576 10016 ft 272 kts 114°
2026-05-03 21:10 61.10258 -149.58818 10506 ft 293 kts 113°
2026-05-03 21:10 61.09476 -149.54776 10997 ft 309 kts 114°
2026-05-03 21:11 61.08941 -149.52012 11459 ft 316 kts 115°
2026-05-03 21:11 61.08117 -149.47754 12253 ft 322 kts 115°
2026-05-03 21:11 61.07276 -149.43427 13054 ft 328 kts 116°
2026-05-03 21:11 61.06415 -149.39009 13859 ft 334 kts 116°
2026-05-03 21:12 61.05541 -149.34534 14554 ft 340 kts 117°
2026-05-03 21:12 61.04645 -149.29968 15202 ft 346 kts 118°
2026-05-03 21:12 61.03730 -149.25325 15863 ft 352 kts 119°
2026-05-03 21:12 61.02801 -149.20608 16498 ft 359 kts 119°
2026-05-03 21:13 61.01853 -149.15792 17160 ft 365 kts 120°
2026-05-03 21:13 61.00889 -149.10916 17803 ft 371 kts 121°
2026-05-03 21:13 60.99905 -149.05951 18434 ft 377 kts 121°
2026-05-03 21:13 60.98905 -149.00921 18971 ft 383 kts 121°
2026-05-03 21:14 60.97888 -148.95815 19540 ft 387 kts 121°
2026-05-03 21:14 60.96864 -148.90674 20097 ft 391 kts 122°
2026-05-03 21:14 60.95826 -148.85484 20648 ft 394 kts 121°
2026-05-03 21:14 60.94776 -148.80233 21265 ft 398 kts 122°
2026-05-03 21:15 60.93716 -148.74951 21866 ft 402 kts 122°
2026-05-03 21:15 60.92642 -148.69616 22366 ft 405 kts 122°
2026-05-03 21:15 60.91561 -148.64251 22936 ft 409 kts 122°
2026-05-03 21:15 60.90464 -148.58831 23536 ft 412 kts 122°
2026-05-03 21:16 60.89354 -148.53373 24063 ft 416 kts 122°
2026-05-03 21:16 60.88233 -148.47873 24554 ft 419 kts 123°
2026-05-03 21:16 60.87104 -148.42345 24988 ft 422 kts 123°
2026-05-03 21:16 60.85959 -148.36760 25461 ft 426 kts 123°
2026-05-03 21:17 60.84803 -148.31137 25932 ft 430 kts 123°
2026-05-03 21:17 60.83649 -148.25534 26352 ft 434 kts 123°
2026-05-03 21:17 60.82455 -148.19752 26811 ft 437 kts 123°
2026-05-03 21:17 60.81261 -148.13996 27261 ft 441 kts 123°
2026-05-03 21:18 60.80056 -148.08184 27677 ft 444 kts 123°
2026-05-03 21:18 60.78858 -148.02417 28126 ft 448 kts 123°
2026-05-03 21:18 60.77614 -147.96454 28584 ft 451 kts 123°
2026-05-03 21:18 60.76391 -147.90609 29006 ft 455 kts 123°
2026-05-03 21:19 60.75142 -147.84655 29422 ft 458 kts 124°
2026-05-03 21:19 60.73876 -147.78646 29844 ft 461 kts 124°
2026-05-03 21:19 60.72598 -147.72608 30253 ft 465 kts 124°
2026-05-03 21:19 60.71305 -147.66530 30602 ft 468 kts 124°
2026-05-03 21:20 60.70000 -147.60416 30892 ft 471 kts 124°
2026-05-03 21:20 60.68689 -147.54275 31231 ft 474 kts 124°
2026-05-03 21:20 60.67369 -147.48100 31561 ft 477 kts 125°
2026-05-03 21:20 60.66039 -147.41890 31910 ft 479 kts 125°
2026-05-03 21:21 60.64694 -147.35639 32225 ft 482 kts 125°
2026-05-03 21:21 60.63345 -147.29379 32565 ft 484 kts 126°
2026-05-03 21:21 60.61988 -147.23093 33013 ft 484 kts 126°
2026-05-03 21:21 60.60636 -147.16845 33465 ft 483 kts 127°
2026-05-03 21:22 60.59273 -147.10578 33856 ft 485 kts 127°
2026-05-03 21:22 60.57897 -147.04295 34184 ft 487 kts 127°
2026-05-03 21:22 60.56518 -146.98013 34532 ft 488 kts 127°
2026-05-03 21:22 60.55133 -146.91710 34899 ft 488 kts 127°
2026-05-03 21:23 60.53745 -146.85408 35261 ft 488 kts 126°
2026-05-03 21:23 60.52354 -146.79106 35629 ft 489 kts 126°
2026-05-03 21:23 60.50963 -146.72822 35984 ft 489 kts 126°
2026-05-03 21:23 60.49566 -146.66531 36341 ft 489 kts 126°
2026-05-03 21:24 60.48164 -146.60251 36697 ft 488 kts 126°
2026-05-03 21:24 60.46735 -146.54024 37020 ft 487 kts 127°
2026-05-03 21:24 60.45264 -146.47834 37353 ft 486 kts 128°
2026-05-03 21:24 60.43769 -146.41700 37619 ft 486 kts 128°
2026-05-03 21:25 60.42256 -146.35581 37910 ft 487 kts 128°
2026-05-03 21:25 60.40732 -146.29455 38214 ft 487 kts 128°
2026-05-03 21:25 60.39210 -146.23324 38530 ft 488 kts 128°
2026-05-03 21:25 60.37698 -146.17199 38837 ft 488 kts 127°
2026-05-03 21:26 60.36186 -146.11042 39085 ft 488 kts 127°
2026-05-03 21:26 60.34680 -146.04890 39192 ft 488 kts 127°
2026-05-03 21:26 60.31668 -145.92631 39226 ft 487 kts 127°
2026-05-03 21:27 60.28633 -145.80448 39225 ft 487 kts 127°
2026-05-03 21:27 60.25595 -145.68325 39242 ft 488 kts 127°
2026-05-03 21:28 60.22535 -145.56145 39244 ft 488 kts 127°
2026-05-03 21:28 60.19467 -145.43977 39244 ft 488 kts 128°
2026-05-03 21:29 60.16384 -145.31848 39244 ft 487 kts 128°
2026-05-03 21:29 60.13282 -145.19737 39205 ft 488 kts 128°
2026-05-03 21:30 60.10169 -145.07645 39217 ft 489 kts 128°
2026-05-03 21:30 60.07043 -144.95549 39227 ft 489 kts 128°
2026-05-03 21:31 60.03910 -144.83469 39233 ft 489 kts 128°
2026-05-03 21:31 60.00766 -144.71413 39226 ft 489 kts 128°
2026-05-03 21:32 59.97607 -144.59387 39201 ft 489 kts 128°
2026-05-03 21:32 59.94427 -144.47356 39212 ft 490 kts 128°
2026-05-03 21:33 59.91235 -144.35331 39223 ft 491 kts 128°
2026-05-03 21:33 59.88027 -144.23315 39235 ft 491 kts 129°
2026-05-03 21:34 59.84829 -144.11412 39245 ft 491 kts 129°
2026-05-03 21:34 59.81589 -143.99376 39256 ft 491 kts 129°
2026-05-03 21:35 59.78371 -143.87501 39257 ft 491 kts 129°
2026-05-03 21:35 59.75099 -143.75499 39266 ft 491 kts 129°
2026-05-03 21:36 59.71868 -143.63679 39264 ft 491 kts 129°
2026-05-03 21:36 59.68598 -143.51800 39240 ft 491 kts 129°
2026-05-03 21:37 59.65311 -143.39928 39242 ft 492 kts 129°
2026-05-03 21:37 59.62005 -143.28093 39251 ft 492 kts 129°
2026-05-03 21:38 59.58697 -143.16280 39252 ft 492 kts 129°
2026-05-03 21:38 59.55378 -143.04466 39230 ft 492 kts 129°
2026-05-03 21:39 59.52042 -142.92657 39237 ft 493 kts 129°
2026-05-03 21:39 59.48684 -142.80865 39252 ft 494 kts 130°
2026-05-03 21:40 59.45310 -142.69076 39259 ft 495 kts 130°
2026-05-03 21:40 59.41928 -142.57271 39272 ft 495 kts 130°
2026-05-03 21:41 59.38529 -142.45497 39261 ft 495 kts 130°
2026-05-03 21:41 59.35123 -142.33753 39266 ft 496 kts 130°
2026-05-03 21:42 59.31704 -142.21976 39273 ft 497 kts 130°
2026-05-03 21:42 59.28285 -142.10318 39279 ft 497 kts 130°
2026-05-03 21:43 59.24823 -141.98607 39292 ft 498 kts 130°
2026-05-03 21:43 59.21351 -141.86902 39260 ft 499 kts 130°
2026-05-03 21:44 59.17865 -141.75189 39284 ft 500 kts 130°
2026-05-03 21:44 59.14367 -141.63462 39296 ft 500 kts 130°
2026-05-03 21:45 59.10859 -141.51772 39294 ft 500 kts 130°
2026-05-03 21:45 59.07333 -141.40094 39268 ft 500 kts 130°
2026-05-03 21:46 59.03794 -141.28462 39280 ft 501 kts 130°
2026-05-03 21:46 59.00237 -141.16830 39292 ft 501 kts 130°
2026-05-03 21:47 58.96674 -141.05199 39300 ft 501 kts 130°
2026-05-03 21:47 58.93118 -140.93639 39313 ft 501 kts 130°
2026-05-03 21:48 58.89535 -140.82048 39292 ft 502 kts 130°
2026-05-03 21:48 58.85935 -140.70463 39305 ft 503 kts 130°
2026-05-03 21:49 58.82312 -140.58898 39318 ft 503 kts 130°
2026-05-03 21:49 58.78643 -140.47536 39325 ft 500 kts 133°
2026-05-03 21:50 58.74777 -140.36542 39297 ft 498 kts 134°
2026-05-03 21:50 58.70834 -140.25717 39310 ft 498 kts 134°
2026-05-03 21:51 58.66879 -140.14762 39323 ft 499 kts 134°
2026-05-03 21:51 58.62942 -140.03723 39333 ft 500 kts 134°
2026-05-03 21:52 58.59008 -139.92714 39338 ft 500 kts 134°
2026-05-03 21:52 58.55075 -139.81820 39316 ft 500 kts 134°
2026-05-03 21:53 58.51098 -139.70889 39332 ft 501 kts 134°
2026-05-03 21:53 58.47111 -139.59958 39342 ft 501 kts 134°
2026-05-03 21:54 58.43124 -139.49047 39348 ft 501 kts 134°
2026-05-03 21:54 58.39125 -139.38163 39325 ft 501 kts 134°
2026-05-03 21:55 58.35112 -139.27308 39334 ft 502 kts 134°
2026-05-03 21:55 58.31081 -139.16455 39344 ft 502 kts 134°
2026-05-03 21:56 58.27045 -139.05633 39344 ft 502 kts 134°
2026-05-03 21:56 58.23005 -138.94847 39348 ft 501 kts 134°
2026-05-03 21:57 58.18960 -138.84088 39355 ft 501 kts 134°
2026-05-03 21:57 58.14893 -138.73342 39357 ft 501 kts 134°
2026-05-03 21:58 58.10855 -138.62703 39362 ft 501 kts 134°
2026-05-03 21:58 58.06778 -138.52012 39366 ft 501 kts 135°
2026-05-03 21:59 58.03358 -138.43081 39340 ft 501 kts 134°
2026-05-03 21:59 57.99270 -138.32434 39349 ft 501 kts 134°
2026-05-03 22:00 57.95164 -138.21823 39353 ft 501 kts 135°
2026-05-03 22:00 57.91060 -138.11263 39359 ft 501 kts 135°
2026-05-03 22:01 57.86940 -138.00679 39339 ft 501 kts 134°
2026-05-03 22:01 57.82814 -137.90120 39356 ft 502 kts 134°
2026-05-03 22:02 57.78671 -137.79588 39356 ft 502 kts 134°
2026-05-03 22:02 57.74542 -137.69146 39367 ft 502 kts 134°
2026-05-03 22:03 57.70386 -137.58669 39373 ft 502 kts 134°
2026-05-03 22:03 57.66220 -137.48222 39348 ft 502 kts 134°
2026-05-03 22:04 57.62038 -137.37780 39355 ft 502 kts 134°
2026-05-03 22:04 57.57855 -137.27351 39364 ft 502 kts 134°
2026-05-03 22:05 57.53660 -137.16939 39366 ft 503 kts 134°
2026-05-03 22:05 57.49475 -137.06627 39347 ft 503 kts 133°
2026-05-03 22:06 57.45251 -136.96260 39363 ft 503 kts 133°
2026-05-03 22:06 57.41013 -136.85903 39370 ft 504 kts 133°
2026-05-03 22:07 57.36765 -136.75552 39377 ft 505 kts 133°
2026-05-03 22:07 57.32507 -136.65216 39355 ft 505 kts 133°
2026-05-03 22:08 57.28232 -136.54901 39366 ft 505 kts 133°
2026-05-03 22:08 57.23942 -136.44611 39373 ft 506 kts 133°
2026-05-03 22:09 57.19660 -136.34390 39377 ft 506 kts 133°
2026-05-03 22:10 57.13206 -136.19000 39366 ft 506 kts 133°
2026-05-03 22:10 57.08893 -136.08761 39380 ft 506 kts 133°
2026-05-03 22:11 57.04560 -135.98537 39387 ft 507 kts 133°
2026-05-03 22:11 57.00218 -135.88352 39400 ft 507 kts 133°
2026-05-03 22:12 56.95873 -135.78185 39393 ft 507 kts 133°
2026-05-03 22:12 56.91511 -135.68032 39399 ft 507 kts 133°
2026-05-03 22:13 56.87130 -135.57902 39404 ft 507 kts 133°
2026-05-03 22:13 56.82369 -135.48653 39410 ft 501 kts 141°
2026-05-03 22:14 56.77414 -135.39713 39404 ft 501 kts 141°
2026-05-03 22:14 56.72450 -135.30789 39387 ft 501 kts 141°
2026-05-03 22:15 56.67483 -135.21888 39389 ft 501 kts 141°
2026-05-03 22:15 56.62510 -135.13023 39397 ft 500 kts 141°
2026-05-03 22:16 56.57533 -135.04199 39401 ft 500 kts 141°
2026-05-03 22:16 56.52552 -134.95392 39383 ft 500 kts 140°
2026-05-03 22:17 56.47577 -134.86606 39388 ft 499 kts 140°
2026-05-03 22:17 56.42603 -134.77846 39386 ft 499 kts 140°
2026-05-03 22:18 56.37617 -134.69131 39390 ft 498 kts 141°
2026-05-03 22:18 56.32628 -134.60452 39389 ft 499 kts 141°
2026-05-03 22:19 56.27627 -134.51760 39392 ft 499 kts 141°
2026-05-03 22:19 56.22619 -134.43102 39389 ft 499 kts 141°
2026-05-03 22:20 56.17605 -134.34465 39393 ft 499 kts 141°
2026-05-03 22:20 56.12589 -134.25849 39370 ft 499 kts 140°
2026-05-03 22:21 56.07572 -134.17274 39377 ft 499 kts 141°
2026-05-03 22:21 56.02547 -134.08716 39365 ft 498 kts 140°
2026-05-03 22:22 55.97522 -134.00185 39363 ft 498 kts 141°
2026-05-03 22:22 55.92492 -133.91688 39344 ft 498 kts 140°
2026-05-03 22:23 55.87463 -133.83210 39350 ft 498 kts 140°
2026-05-03 22:23 55.82415 -133.74736 39359 ft 499 kts 140°
2026-05-03 22:24 55.77355 -133.66283 39366 ft 499 kts 140°
2026-05-03 22:24 55.72296 -133.57868 39364 ft 499 kts 140°
2026-05-03 22:25 55.67228 -133.49455 39357 ft 499 kts 140°
2026-05-03 22:25 55.62151 -133.41057 39356 ft 500 kts 140°
2026-05-03 22:26 55.57056 -133.32678 39359 ft 500 kts 140°
2026-05-03 22:26 55.51991 -133.24365 39354 ft 500 kts 140°
2026-05-03 22:27 55.46885 -133.16011 39339 ft 501 kts 140°
2026-05-03 22:27 55.41778 -133.07674 39350 ft 501 kts 140°
2026-05-03 22:28 55.36657 -132.99360 39333 ft 501 kts 140°
2026-05-03 22:28 55.31529 -132.91074 39322 ft 501 kts 139°
2026-05-03 22:29 55.26399 -132.82809 39327 ft 501 kts 139°
2026-05-03 22:29 55.21255 -132.74565 39308 ft 501 kts 140°
2026-05-03 22:30 55.16109 -132.66337 39314 ft 501 kts 140°
2026-05-03 22:30 55.10954 -132.58135 39298 ft 501 kts 139°
2026-05-03 22:31 55.05805 -132.49958 39295 ft 500 kts 139°
2026-05-03 22:31 55.00655 -132.41787 39303 ft 501 kts 139°
2026-05-03 22:32 54.95496 -132.33663 39289 ft 499 kts 139°
2026-05-03 22:32 54.90328 -132.25580 39265 ft 499 kts 139°
2026-05-03 22:33 54.85173 -132.17510 39283 ft 499 kts 139°
2026-05-03 22:33 54.80021 -132.09473 39295 ft 498 kts 139°
2026-05-03 22:34 54.74873 -132.01470 39297 ft 497 kts 139°
2026-05-03 22:34 54.69717 -131.93486 39299 ft 497 kts 139°
2026-05-03 22:35 54.64566 -131.85543 39290 ft 496 kts 139°
2026-05-03 22:35 54.59414 -131.77625 39308 ft 495 kts 139°
2026-05-03 22:36 54.54295 -131.69791 39310 ft 495 kts 139°
2026-05-03 22:36 54.49144 -131.61946 39298 ft 494 kts 139°
2026-05-03 22:37 54.44002 -131.54112 39289 ft 494 kts 139°
2026-05-03 22:37 54.38860 -131.46304 39293 ft 493 kts 139°
2026-05-03 22:38 54.33717 -131.38531 39300 ft 493 kts 139°
2026-05-03 22:38 54.28564 -131.30780 39302 ft 493 kts 139°
2026-05-03 22:39 54.23406 -131.23036 39299 ft 493 kts 139°
2026-05-03 22:39 54.18236 -131.15323 39300 ft 493 kts 140°
2026-05-03 22:40 54.13071 -131.07637 39270 ft 493 kts 140°
2026-05-03 22:40 54.07902 -130.99957 39253 ft 493 kts 139°
2026-05-03 22:41 54.02725 -130.92291 39257 ft 493 kts 139°
2026-05-03 22:41 53.97539 -130.84648 39251 ft 493 kts 139°
2026-05-03 22:42 53.92349 -130.77019 39259 ft 493 kts 139°
2026-05-03 22:42 53.87154 -130.69402 39251 ft 493 kts 139°
2026-05-03 22:43 53.81984 -130.61864 39252 ft 493 kts 139°
2026-05-03 22:43 53.77659 -130.55573 39252 ft 493 kts 139°
2026-05-03 22:44 53.72453 -130.48029 39245 ft 493 kts 139°
2026-05-03 22:44 53.67246 -130.40509 39244 ft 492 kts 139°
2026-05-03 22:45 53.62051 -130.33011 39228 ft 492 kts 139°
2026-05-03 22:45 53.56846 -130.25523 39211 ft 492 kts 139°
2026-05-03 22:46 53.51626 -130.18068 39209 ft 492 kts 139°
2026-05-03 22:46 53.46407 -130.10636 39190 ft 492 kts 139°
2026-05-03 22:47 53.41199 -130.03224 39172 ft 491 kts 139°
2026-05-03 22:47 53.35983 -129.95830 39172 ft 491 kts 139°
2026-05-03 22:48 53.30764 -129.88470 39155 ft 490 kts 139°
2026-05-03 22:48 53.25536 -129.81130 39142 ft 490 kts 139°
2026-05-03 22:49 53.20312 -129.73811 39144 ft 490 kts 139°
2026-05-03 22:49 53.15106 -129.66513 39132 ft 489 kts 139°
2026-05-03 22:50 53.09886 -129.59224 39130 ft 490 kts 139°
2026-05-03 22:50 53.04659 -129.51970 39129 ft 489 kts 139°
2026-05-03 22:51 52.99526 -129.44547 39120 ft 488 kts 135°
2026-05-03 22:51 52.94684 -129.36669 39117 ft 487 kts 133°
2026-05-03 22:52 52.89878 -129.28734 39107 ft 488 kts 134°
2026-05-03 22:52 52.84993 -129.20948 39108 ft 488 kts 134°
2026-05-03 22:53 52.80044 -129.13257 39107 ft 487 kts 134°
2026-05-03 22:53 52.75137 -129.05646 39100 ft 487 kts 134°
2026-05-03 22:54 52.70208 -128.97966 39097 ft 487 kts 134°
2026-05-03 22:54 52.65293 -128.90293 39099 ft 487 kts 134°
2026-05-03 22:55 52.60372 -128.82660 39093 ft 486 kts 134°
2026-05-03 22:55 52.55447 -128.75050 39092 ft 485 kts 134°
2026-05-03 22:56 52.50527 -128.67461 39084 ft 485 kts 134°
2026-05-03 22:56 52.45603 -128.59896 39087 ft 485 kts 134°
2026-05-03 22:57 52.40668 -128.52353 39082 ft 484 kts 134°
2026-05-03 22:57 52.35740 -128.44847 39079 ft 484 kts 134°
2026-05-03 22:58 52.30811 -128.37345 39082 ft 484 kts 134°
2026-05-03 22:58 52.25912 -128.29909 39083 ft 484 kts 134°
2026-05-03 22:59 52.20977 -128.22443 39084 ft 484 kts 134°
2026-05-03 22:59 52.16025 -128.15006 39080 ft 484 kts 134°
2026-05-03 23:00 52.11089 -128.07580 39077 ft 484 kts 134°
2026-05-03 23:00 52.06141 -128.00161 39077 ft 484 kts 134°
2026-05-03 23:01 52.01187 -127.92777 39066 ft 483 kts 134°
2026-05-03 23:01 51.96239 -127.85426 39082 ft 482 kts 134°
2026-05-03 23:02 51.91299 -127.78115 39084 ft 481 kts 134°
2026-05-03 23:02 51.86364 -127.70824 39096 ft 480 kts 134°
2026-05-03 23:03 51.81440 -127.63558 39087 ft 479 kts 134°
2026-05-03 23:03 51.76514 -127.56328 39086 ft 478 kts 134°
2026-05-03 23:04 51.71588 -127.49124 39074 ft 478 kts 134°
2026-05-03 23:04 51.66655 -127.41912 39078 ft 478 kts 134°
2026-05-03 23:05 51.61731 -127.34746 39078 ft 478 kts 134°
2026-05-03 23:05 51.56802 -127.27597 39071 ft 477 kts 134°
2026-05-03 23:06 51.51867 -127.20444 39058 ft 477 kts 134°
2026-05-03 23:06 51.46968 -127.13379 39059 ft 477 kts 134°
2026-05-03 23:07 51.42025 -127.06283 39061 ft 477 kts 134°
2026-05-03 23:07 51.37083 -126.99201 39054 ft 476 kts 134°
2026-05-03 23:08 51.32142 -126.92146 39052 ft 475 kts 134°
2026-05-03 23:08 51.27212 -126.85119 39050 ft 475 kts 133°
2026-05-03 23:09 51.22282 -126.78114 39048 ft 474 kts 133°
2026-05-03 23:09 51.17352 -126.71115 39042 ft 474 kts 134°
2026-05-03 23:10 51.12419 -126.64138 39050 ft 474 kts 133°
2026-05-03 23:10 51.07477 -126.57181 39050 ft 474 kts 133°
2026-05-03 23:11 51.02527 -126.50251 39049 ft 473 kts 133°
2026-05-03 23:11 50.97626 -126.43384 39046 ft 474 kts 133°
2026-05-03 23:12 50.92684 -126.36490 39048 ft 473 kts 133°